Temp
84 92 97 95 79 81 78 80 89 83 83 90 91 82 81 79 70 58 91 97 94 90 85 84 80 81 81 80 80 80 80 80 80 80 80 81 81 81 81 81 81 81 81 82 82 82 81 81 81
96 101 102 94 76 75 77 86 82 85 89 91 91 86 83 78 89 89 91 98 95 90 86 84 80 80 81 80 80 80 80 80 80 80 81 81 81 81 81 81 81 81 81 82 82 81 81 81 81
90 101 93 69 72 75 76 86 87 90 94 90 88 91 87 83 91 92 96 99 96 92 91 83 80 80 81 80 80 80 80 80 80 81 81 81 81 81 80 80 81 81 82 82 82 81 81 81 81
102 102 90 79 78 84 86 89 91 90 93 94 90 82 91 96 93 96 99 100 98 96 90 81 80 80 80 81 80 80 80 80 80 81 81 81 81 81 81 81 81 81 82 82 82 81 81 80 80
106 96 60 63 83 88 92 94 93 90 90 92 91 82 84 93 97 97 97 99 94 93 88 84 80 80 81 81 81 81 81 80 81 81 81 81 81 81 81 81 81 82 82 82 82 81 81 80 80
95 88 72 70 81 89 93 95 94 92 92 92 88 85 85 96 95 96 98 98 99 92 90 83 80 80 80 80 81 81 81 81 81 81 81 81 81 81 81 81 81 81 81 81 81 81 81 80 80
94 86 79 81 79 78 85 97 92 91 91 84 91 82 88 93 96 98 99 99 100 98 90 87 85 82 80 80 80 80 80 80 81 81 81 81 81 81 81 81 81 81 80 81 81 81 80 80 80
100 94 82 86 81 79 93 94 95 93 90 99 95 82 84 92 98 99 99 99 99 99 95 92 89 87 84 83 80 80 80 80 80 81 81 81 80 81 81 80 80 81 81 80 80 80 79 79 79
105 86 75 80 84 85 93 79 73 97 91 96 95 95 95 98 99 98 96 97 98 98 98 97 95 92 90 90 84 80 80 80 80 80 80 80 82 84 84 83 81 81 81 80 80 80 79 79 79
96 86 83 91 91 88 91 89 91 78 82 87 93 97 98 98 97 93 92 93 95 96 97 98 97 94 96 94 86 83 85 80 79 84 82 82 86 85 89 86 82 81 80 80 79 79 79 79 80
97 88 95 96 97 94 92 88 91 83 74 82 86 93 95 96 94 94 95 97 87 97 95 95 93 91 91 92 88 81 70 68 69 70 85 84 85 84 85 83 83 80 83 82 83 81 81 79 80
91 97 97 98 99 98 93 90 86 85 83 91 97 98 96 94 94 94 75 96 94 94 94 95 94 89 89 90 90 82 71 69 68 70 80 82 82 81 79 80 79 78 78 77 75 76 75 75 75
93 96 98 99 99 98 99 95 85 90 95 96 101 99 95 95 95 96 97 97 96 94 93 96 90 88 88 88 86 87 79 72 72 76 82 81 79 77 77 78 78 77 77 77 75 75 74 74 75
97 97 97 98 98 98 94 89 87 93 97 99 99 97 79 95 95 95 95 93 92 92 94 94 93 88 90 86 85 84 85 86 86 82 81 79 79 77 77 75 75 75 76 75 75 74 72 72 74
98 91 95 95 97 94 97 85 74 88 93 93 93 82 80 93 97 93 93 92 92 91 91 89 90 90 86 86 86 85 84 86 82 81 80 81 79 76 77 75 74 74 73 75 73 73 72 71 73
92 90 80 92 95 96 93 77 85 91 94 91 88 77 76 85 95 94 94 93 92 92 86 89 92 88 86 86 85 84 84 83 81 79 79 82 82 81 77 75 73 74 72 72 71 70 69 68 69
86 75 73 84 95 93 91 81 91 94 92 94 95 74 70 68 90 92 94 94 91 90 87 86 88 88 85 85 83 84 82 81 80 78 77 78 80 82 76 75 73 73 71 70 70 68 67 66 66
78 76 82 81 89 91 88 86 88 94 95 93 95 82 71 68 91 90 93 95 91 90 88 86 85 86 85 83 82 81 82 72 68 65 70 70 81 80 75 73 72 72 70 69 68 65 67 66 65
88 85 81 86 92 87 85 86 90 94 93 92 93 93 93 92 79 77 92 93 90 88 85 86 83 82 82 81 81 81 77 73 69 68 78 81 81 79 75 73 72 70 68 66 67 66 63 64 64
87 83 81 86 91 88 86 84 90 91 90 91 92 92 92 93 79 84 89 90 88 85 85 83 85 82 81 81 80 81 80 80 80 80 80 79 79 77 75 72 70 69 66 64 64 63 61 62 62
84 80 80 80 86 89 85 81 84 89 90 91 92 93 93 92 77 74 84 76 88 85 84 84 83 84 83 84 81 80 80 77 77 77 77 77 78 77 75 73 70 68 66 64 62 62 60 58 60
78 88 85 83 80 72 85 66 76 81 71 85 90 91 88 86 91 78 69 82 89 88 86 85 83 82 83 82 81 78 76 73 76 76 75 74 76 75 75 73 70 66 64 63 62 63 59 57 55
82 89 85 84 79 78 76 70 72 76 62 60 88 91 92 93 86 84 82 72 70 68 67 82 82 82 82 80 79 77 76 75 75 74 72 72 73 74 75 70 68 65 64 63 61 59 59 58 55
90 85 85 84 79 63 72 73 69 73 79 84 89 91 93 95 90 90 72 72 69 72 71 84 81 80 81 79 79 77 75 74 72 71 70 71 71 71 71 69 66 65 64 62 60 60 59 56 55
86 78 67 65 65 61 77 71 69 82 85 87 86 89 92 94 95 88 80 76 71 76 88 86 83 80 80 80 79 78 77 74 71 71 69 68 67 65 67 66 65 64 62 61 61 58 57 55 54
81 77 66 55 59 64 75 63 64 85 89 90 91 91 93 93 92 88 88 76 65 72 85 87 85 84 83 81 81 76 76 73 71 68 69 64 68 67 67 65 64 62 61 60 59 57 56 55 55
79 72 77 68 70 60 69 68 77 84 84 86 87 88 88 90 91 83 74 71 65 64 80 87 84 83 84 83 77 77 72 68 66 68 67 66 66 67 65 64 61 61 60 59 56 57 56 56 56
81 85 66 69 56 55 66 56 64 75 79 82 83 84 86 89 89 88 84 73 74 82 87 86 86 82 82 82 75 70 69 70 70 68 66 65 65 64 62 60 59 60 59 56 57 55 56 56 55
68 73 75 75 70 59 58 62 76 76 79 79 82 84 85 86 89 90 90 89 87 87 84 82 79 82 78 72 71 71 70 70 68 67 66 62 63 61 59 58 58 58 55 57 55 56 57 56 55
81 72 70 65 62 68 65 61 81 81 83 82 82 85 87 86 85 88 84 84 84 83 82 81 79 77 73 74 74 71 70 68 66 63 63 62 59 58 59 59 55 54 53 56 56 57 57 56 55
MSLP
1008.69 1008.49 1008.04 1006.99 1006.89 1004.41 1003.54 1004.08 1004.13 1005.05 1006.09 1006.67 1007.19 1008.48 1009.07 1010.24 1011.47 1012.75 1011.45 1011.54 1012.74 1014.08 1015.38 1016.03 1016.56 1016.89 1017.18 1017.43 1017.63 1017.72 1017.79 1017.82 1017.74 1017.82 1017.80 1017.74 1017.75 1017.71 1017.67 1017.63 1017.51 1017.38 1017.29 1017.21 1017.08 1016.92 1016.89 1016.75 1016.63
1007.78 1007.17 1006.56 1005.75 1005.50 1003.29 1003.58 1004.02 1004.68 1005.52 1006.08 1006.70 1006.90 1007.85 1008.59 1009.81 1010.12 1010.57 1011.30 1011.42 1012.48 1014.01 1015.27 1015.97 1016.61 1016.93 1017.26 1017.53 1017.67 1017.78 1017.86 1017.86 1017.84 1017.85 1017.83 1017.76 1017.75 1017.69 1017.71 1017.63 1017.52 1017.46 1017.29 1017.19 1017.07 1016.94 1016.83 1016.71 1016.57
1008.30 1006.96 1006.29 1007.85 1005.20 1003.37 1003.59 1004.01 1004.59 1005.23 1005.49 1006.10 1006.94 1007.77 1008.65 1009.67 1010.06 1010.61 1011.57 1011.67 1012.46 1013.70 1014.78 1016.01 1016.65 1016.98 1017.27 1017.49 1017.68 1017.77 1017.83 1017.81 1017.85 1017.85 1017.71 1017.75 1017.69 1017.61 1017.73 1017.66 1017.49 1017.46 1017.36 1017.26 1017.06 1016.97 1016.80 1016.69 1016.60
1006.21 1005.11 1006.04 1006.39 1004.05 1003.63 1003.44 1003.69 1004.08 1004.72 1005.67 1005.97 1006.85 1008.32 1009.21 1009.36 1009.91 1010.98 1011.40 1011.54 1012.07 1012.80 1014.57 1016.10 1016.73 1016.98 1017.21 1017.41 1017.50 1017.61 1017.63 1017.73 1017.70 1017.66 1017.53 1017.50 1017.53 1017.50 1017.53 1017.60 1017.56 1017.45 1017.33 1017.29 1017.18 1017.02 1016.87 1016.69 1016.53
1004.84 1005.65 1008.59 1007.17 1003.60 1003.54 1003.34 1003.62 1004.28 1004.53 1005.41 1005.77 1006.76 1008.35 1009.39 1010.01 1010.66 1011.16 1011.48 1011.56 1011.85 1013.04 1014.71 1015.77 1016.51 1016.88 1017.04 1017.19 1017.30 1017.43 1017.45 1017.47 1017.42 1017.42 1017.33 1017.29 1017.35 1017.34 1017.35 1017.47 1017.48 1017.36 1017.38 1017.33 1017.27 1017.09 1016.97 1016.73 1016.57
1003.83 1005.70 1007.37 1006.09 1004.41 1003.61 1003.44 1003.75 1004.21 1004.39 1005.25 1005.86 1007.21 1008.55 1009.76 1010.24 1010.72 1011.31 1011.54 1011.51 1011.71 1012.97 1014.24 1015.63 1016.29 1016.56 1016.73 1016.84 1017.00 1017.01 1017.11 1017.05 1017.09 1017.17 1017.15 1017.15 1017.18 1017.04 1017.11 1017.29 1017.35 1017.33 1017.31 1017.31 1017.20 1017.07 1017.01 1016.84 1016.60
1003.16 1003.70 1004.58 1004.66 1004.83 1004.47 1004.89 1004.35 1004.43 1004.78 1005.58 1007.11 1007.85 1008.31 1009.31 1009.74 1010.53 1011.07 1011.21 1011.56 1011.68 1012.26 1013.96 1015.07 1015.78 1016.21 1016.40 1016.48 1016.53 1016.60 1016.70 1016.75 1016.82 1016.87 1016.80 1016.77 1016.75 1016.65 1016.74 1016.88 1017.06 1017.07 1017.09 1016.97 1016.84 1016.84 1016.81 1016.63 1016.27
1002.93 1002.69 1003.74 1003.26 1003.89 1005.14 1003.99 1004.67 1005.16 1005.54 1006.35 1006.46 1007.43 1008.09 1008.71 1009.55 1010.09 1010.61 1011.04 1011.44 1011.53 1012.13 1012.89 1013.97 1014.77 1015.33 1015.57 1015.92 1016.09 1016.13 1016.62 1016.98 1017.05 1016.87 1016.57 1016.21 1016.33 1016.40 1016.63 1016.67 1016.55 1016.72 1016.73 1016.57 1016.61 1016.62 1016.60 1016.43 1016.01
1002.92 1003.05 1004.19 1003.91 1003.51 1003.88 1004.61 1006.21 1006.75 1006.39 1007.13 1006.57 1006.91 1007.27 1008.36 1009.10 1009.63 1010.12 1010.67 1011.01 1011.14 1011.73 1012.11 1012.63 1013.03 1013.92 1013.97 1014.59 1015.43 1016.16 1016.20 1016.09 1016.63 1016.87 1016.59 1016.25 1016.01 1015.80 1016.21 1016.09 1016.15 1016.39 1016.41 1016.39 1016.45 1016.30 1016.12 1015.90 1015.72
1002.39 1002.50 1003.19 1003.39 1003.30 1003.95 1004.79 1005.36 1006.39 1007.71 1008.61 1007.65 1007.00 1007.26 1008.34 1008.92 1009.30 1009.77 1009.85 1009.94 1010.35 1011.20 1011.84 1012.23 1012.48 1013.00 1013.04 1013.71 1014.48 1015.40 1016.31 1017.27 1017.62 1016.43 1016.17 1015.73 1015.33 1015.11 1015.37 1015.51 1015.89 1016.10 1016.18 1016.15 1016.14 1016.01 1015.73 1015.69 1015.50
1001.93 1001.89 1001.86 1002.04 1002.69 1003.03 1004.08 1005.13 1006.03 1007.68 1008.02 1007.82 1007.45 1007.08 1008.17 1008.70 1009.06 1009.20 1008.94 1009.17 1010.88 1010.96 1011.76 1012.60 1013.17 1013.32 1013.41 1013.35 1014.10 1015.27 1016.13 1017.90 1015.43 1016.54 1015.30 1015.27 1015.52 1015.11 1015.21 1015.44 1015.85 1015.85 1015.95 1015.96 1015.88 1015.85 1015.67 1015.57 1015.21
1002.00 1001.88 1002.07 1002.09 1002.51 1002.60 1003.14 1005.60 1006.52 1006.05 1007.58 1006.70 1006.22 1006.33 1007.45 1008.27 1008.47 1008.67 1011.09 1009.05 1010.28 1011.20 1011.87 1012.45 1012.85 1013.55 1013.76 1013.67 1013.66 1013.99 1015.31 1016.74 1016.52 1017.01 1015.32 1015.26 1015.40 1015.38 1015.81 1016.08 1016.00 1016.02 1016.04 1016.13 1016.12 1016.13 1015.97 1015.71 1015.49
1002.01 1001.85 1002.36 1002.23 1002.56 1002.61 1003.18 1003.57 1004.95 1005.43 1005.95 1006.34 1005.46 1006.11 1006.91 1007.39 1007.92 1008.42 1008.73 1009.05 1009.99 1010.81 1011.61 1011.89 1012.75 1013.33 1013.61 1013.91 1013.93 1013.85 1014.42 1015.57 1015.97 1015.39 1015.39 1015.36 1015.54 1016.21 1016.35 1016.30 1016.28 1016.18 1016.12 1016.16 1016.32 1016.33 1015.97 1015.75 1015.48
1002.06 1002.19 1002.07 1002.28 1002.26 1002.61 1003.27 1004.52 1006.01 1005.78 1005.67 1004.92 1005.90 1005.91 1006.92 1006.18 1007.65 1008.32 1008.94 1009.53 1010.31 1010.99 1011.51 1012.11 1012.67 1013.21 1013.43 1013.94 1014.13 1014.21 1013.90 1013.93 1013.93 1014.61 1015.11 1015.49 1015.89 1016.20 1016.49 1016.68 1016.63 1016.44 1016.21 1016.36 1016.51 1016.20 1016.00 1015.87 1015.45
1002.44 1002.62 1002.33 1002.29 1002.33 1002.71 1003.16 1004.55 1006.20 1005.86 1005.90 1005.79 1006.01 1007.57 1009.27 1008.56 1007.65 1008.23 1008.98 1009.51 1010.34 1011.06 1011.69 1012.40 1012.96 1013.28 1013.69 1013.98 1014.13 1014.14 1014.15 1014.13 1014.67 1015.03 1015.15 1015.37 1015.83 1016.44 1016.36 1016.89 1016.79 1016.55 1016.52 1016.48 1016.51 1016.17 1015.95 1015.92 1015.72
1002.54 1002.87 1003.05 1002.52 1002.49 1002.44 1003.29 1004.47 1005.15 1004.96 1005.05 1005.51 1005.95 1006.90 1009.33 1008.15 1007.27 1008.05 1009.05 1009.33 1010.04 1010.83 1012.00 1012.68 1012.77 1013.37 1013.95 1014.04 1014.17 1014.25 1014.34 1014.85 1015.36 1015.62 1015.67 1015.57 1015.63 1015.76 1016.15 1016.71 1016.79 1016.62 1016.65 1016.55 1016.40 1016.25 1016.17 1016.23 1016.09
1002.76 1004.18 1004.34 1003.03 1002.67 1002.75 1002.79 1003.45 1004.13 1004.49 1004.78 1004.64 1005.24 1007.70 1008.97 1011.71 1007.99 1008.34 1009.46 1009.70 1009.59 1010.72 1011.90 1012.75 1013.10 1013.42 1013.93 1014.27 1014.39 1014.31 1014.92 1015.58 1016.30 1016.39 1016.19 1015.18 1014.81 1015.36 1016.03 1016.54 1016.61 1016.64 1016.64 1016.52 1016.40 1016.53 1016.54 1016.39 1016.12
1002.70 1003.33 1002.97 1002.85 1003.24 1002.96 1002.94 1002.92 1003.95 1003.33 1003.75 1004.48 1004.89 1006.33 1007.31 1009.80 1007.62 1008.83 1009.63 1009.29 1009.02 1010.15 1011.58 1012.51 1013.22 1013.59 1014.00 1014.30 1014.50 1014.56 1014.79 1015.90 1016.97 1016.89 1016.65 1015.39 1014.98 1015.33 1016.29 1016.58 1016.63 1016.59 1016.74 1016.59 1016.70 1016.70 1016.65 1016.45 1016.15
1003.05 1002.79 1002.85 1002.97 1002.91 1003.26 1003.26 1003.20 1002.79 1003.07 1003.59 1004.04 1004.49 1005.08 1005.28 1006.26 1009.54 1012.70 1010.71 1010.85 1010.28 1010.64 1011.53 1012.31 1013.11 1013.63 1014.17 1014.28 1014.16 1014.05 1014.77 1015.81 1016.35 1016.28 1015.35 1014.85 1015.11 1015.76 1016.19 1016.31 1016.44 1016.53 1016.65 1016.73 1016.78 1016.71 1016.63 1016.59 1016.44
1003.09 1003.09 1003.17 1003.32 1003.28 1003.34 1003.22 1003.21 1003.21 1003.65 1004.32 1004.91 1005.02 1005.01 1005.20 1006.70 1009.83 1011.18 1011.83 1009.95 1010.17 1011.36 1011.93 1012.57 1013.07 1013.53 1013.95 1014.06 1014.10 1014.22 1014.53 1014.74 1014.84 1014.53 1014.68 1014.95 1015.31 1015.65 1015.79 1016.01 1016.29 1016.40 1016.58 1016.76 1016.87 1016.92 1016.81 1016.74 1016.53
1003.42 1003.96 1003.98 1004.00 1003.71 1003.47 1002.94 1003.21 1003.37 1004.47 1005.15 1005.64 1005.70 1005.73 1005.70 1006.76 1009.57 1010.85 1010.19 1010.81 1010.95 1010.61 1011.45 1012.18 1012.86 1013.35 1013.81 1013.89 1014.01 1014.14 1014.42 1014.47 1014.47 1014.58 1014.63 1014.91 1014.96 1015.15 1015.24 1015.39 1015.64 1016.10 1016.44 1016.63 1016.89 1016.87 1016.87 1016.74 1016.64
1003.68 1004.41 1004.55 1004.23 1004.15 1003.70 1003.77 1004.61 1005.04 1005.99 1007.63 1005.74 1005.83 1006.10 1006.61 1007.04 1007.34 1009.13 1011.45 1011.32 1010.80 1010.16 1010.06 1011.42 1012.33 1013.17 1013.64 1013.80 1013.95 1014.12 1014.46 1014.52 1014.39 1014.37 1014.53 1014.75 1014.72 1014.82 1014.99 1015.01 1015.42 1015.91 1016.38 1016.68 1016.78 1016.89 1017.03 1016.95 1016.77
1004.58 1004.67 1004.60 1004.47 1004.39 1004.36 1004.76 1005.50 1006.47 1006.91 1008.57 1009.13 1005.96 1006.05 1006.16 1006.51 1007.60 1009.07 1010.02 1011.36 1012.24 1010.85 1012.97 1011.37 1012.24 1012.97 1013.45 1013.75 1014.17 1014.19 1014.29 1014.46 1014.57 1014.87 1015.06 1015.11 1014.75 1014.76 1014.69 1015.22 1015.52 1015.94 1016.29 1016.40 1016.67 1016.74 1016.69 1016.71 1016.77
1005.10 1004.79 1004.19 1004.32 1005.04 1005.61 1006.29 1005.91 1007.02 1007.06 1006.81 1006.53 1006.25 1005.94 1006.10 1006.29 1007.31 1008.35 1010.70 1010.73 1011.44 1012.67 1012.57 1012.09 1012.42 1012.98 1013.26 1013.74 1014.07 1014.27 1014.63 1014.91 1015.12 1015.26 1015.30 1015.15 1015.10 1015.17 1015.09 1015.19 1015.61 1015.87 1016.09 1016.30 1016.46 1016.51 1016.50 1016.49 1016.41
1005.31 1005.39 1004.92 1004.90 1005.43 1005.65 1005.90 1006.61 1007.46 1006.83 1006.85 1006.68 1006.57 1006.45 1006.47 1006.61 1006.65 1008.15 1009.93 1010.72 1011.51 1013.28 1011.70 1012.39 1012.45 1012.63 1012.97 1013.23 1013.63 1014.04 1014.53 1015.11 1015.28 1015.08 1014.90 1015.62 1015.59 1015.27 1015.23 1015.54 1015.56 1015.80 1016.03 1016.15 1016.11 1016.28 1016.36 1016.16 1016.13
1005.91 1006.77 1006.91 1006.86 1006.90 1007.07 1007.24 1008.11 1009.63 1007.59 1006.91 1006.95 1006.67 1006.65 1006.54 1006.67 1007.55 1008.52 1010.15 1012.35 1011.82 1014.92 1012.30 1012.39 1012.19 1012.34 1012.46 1013.02 1013.50 1014.21 1014.84 1015.29 1015.69 1016.07 1015.83 1015.96 1015.58 1015.51 1015.51 1015.56 1015.52 1015.80 1015.94 1015.97 1015.89 1016.10 1016.00 1015.80 1015.66
1006.79 1007.65 1008.57 1008.50 1008.45 1008.78 1008.43 1009.31 1009.13 1008.30 1007.59 1007.49 1007.49 1007.44 1007.28 1007.42 1007.90 1009.66 1011.21 1011.32 1013.45 1014.05 1012.13 1011.87 1012.17 1012.28 1012.37 1012.69 1013.51 1014.16 1014.99 1015.55 1015.92 1016.23 1016.16 1016.01 1015.86 1015.77 1015.64 1015.68 1015.91 1015.91 1015.86 1015.85 1015.95 1015.68 1015.53 1015.40 1015.18
1008.50 1008.69 1009.39 1009.11 1009.21 1009.09 1008.71 1009.98 1009.67 1008.68 1008.30 1008.25 1008.26 1008.29 1008.19 1008.17 1008.73 1009.57 1010.37 1012.12 1012.62 1012.16 1011.67 1012.12 1012.25 1012.41 1012.53 1012.73 1013.79 1015.06 1015.46 1015.70 1015.94 1016.15 1016.33 1016.22 1016.15 1016.11 1016.07 1016.12 1016.03 1015.95 1015.93 1015.87 1015.59 1015.36 1015.10 1014.98 1014.81
1010.23 1009.37 1009.70 1009.19 1009.84 1010.19 1009.82 1010.34 1010.18 1009.80 1009.13 1008.95 1009.04 1008.97 1009.16 1009.32 1009.32 1009.74 1010.21 1010.91 1011.51 1012.02 1012.16 1012.48 1012.57 1012.73 1013.33 1014.34 1014.96 1015.38 1015.62 1015.83 1016.12 1016.38 1016.45 1016.61 1016.51 1016.46 1016.40 1016.27 1016.16 1016.09 1016.02 1015.43 1015.21 1015.00 1014.77 1014.59 1014.35
1009.99 1010.21 1010.36 1010.19 1010.47 1010.48 1010.44 1010.79 1010.52 1010.08 1009.68 1009.59 1009.68 1009.47 1009.57 1010.15 1010.77 1010.73 1011.19 1011.67 1012.18 1012.55 1012.97 1013.19 1013.43 1013.85 1014.62 1014.83 1015.07 1015.59 1015.82 1016.08 1016.27 1016.65 1016.85 1016.94 1016.90 1016.73 1016.59 1016.55 1016.50 1016.29 1015.95 1015.35 1015.01 1014.68 1014.48 1014.29 1014.06
Wind_Speed
9 11 9 9 7 8 16 13 18 19 17 13 8 13 18 17 13 7 8 18 24 19 15 14 12 11 9 8 6 5 4 4 5 5 6 6 7 7 7 7 7 7 7 7 8 9 9 10 10
8 13 11 7 8 9 15 18 18 13 12 11 9 1 22 18 16 18 11 12 22 18 13 14 13 11 10 8 7 5 4 3 4 3 4 5 5 6 6 6 6 7 7 7 8 8 9 10 10
10 12 8 5 7 14 14 15 14 14 10 14 17 21 16 12 17 12 15 10 22 17 15 14 13 11 10 9 7 6 4 3 2 2 3 3 3 4 5 6 6 6 7 8 7 8 8 9 9
8 7 8 10 17 14 14 12 16 18 14 4 19 12 14 12 17 14 16 14 14 19 18 17 13 11 10 9 7 6 5 3 2 0 0 1 2 2 3 4 4 5 7 7 6 6 6 7 7
13 5 5 11 18 15 12 18 10 14 14 16 20 19 15 16 15 13 9 10 8 21 18 16 14 11 10 9 8 7 6 6 4 4 2 0 1 1 1 3 3 5 7 8 8 6 5 5 6
12 8 9 5 9 14 16 16 15 13 14 17 21 20 14 13 14 13 10 8 15 19 17 14 14 12 11 10 10 9 9 8 7 5 3 2 2 3 3 2 2 4 6 7 7 7 7 8 8
14 8 6 10 12 19 2 12 4 18 17 18 16 18 12 17 14 13 12 9 7 19 18 14 13 12 13 13 12 11 11 9 9 8 6 7 7 7 8 7 4 1 2 5 6 6 8 9 10
7 5 10 4 12 4 8 15 15 19 12 13 13 6 15 15 16 14 13 11 10 10 18 16 13 14 13 13 15 14 11 8 8 9 10 11 9 10 8 10 9 5 3 9 7 7 9 10 13
10 4 12 6 8 8 17 23 20 19 20 10 15 16 18 18 16 14 12 10 9 9 10 14 18 15 17 14 13 13 13 13 12 11 12 9 7 10 12 10 10 6 7 11 9 10 12 13 15
8 2 14 10 13 14 13 7 4 17 17 9 13 22 18 16 14 13 13 12 15 12 9 5 4 7 3 12 13 12 5 8 15 10 10 7 2 4 1 5 6 7 9 12 11 13 14 12 8
8 6 8 7 9 21 17 19 13 22 6 15 14 19 17 15 14 13 13 10 11 11 7 6 4 4 6 5 7 7 8 7 10 23 3 3 3 3 3 3 3 3 1 4 7 7 6 10 7
8 6 8 11 7 8 13 21 18 16 13 25 18 21 19 16 13 10 23 4 15 12 7 10 11 5 3 5 5 1 7 5 1 7 10 3 0 5 5 4 4 3 4 5 5 4 6 7 7
10 7 2 5 4 5 4 5 20 14 8 26 14 18 20 18 15 13 5 9 11 8 10 7 9 6 3 2 4 6 3 7 10 13 5 5 6 5 3 3 4 4 3 4 6 7 5 6 7
1 4 4 0 7 1 6 16 23 9 4 13 1 12 12 12 15 13 10 9 6 7 3 8 7 7 5 3 4 5 5 4 3 8 7 7 3 3 4 5 4 4 4 5 6 7 5 5 7
5 7 10 8 5 6 3 9 13 29 23 5 16 16 21 18 16 12 9 9 10 8 5 8 4 5 4 5 1 3 5 5 5 5 6 4 1 3 4 3 4 4 4 6 7 6 5 5 8
13 6 7 4 4 4 5 12 16 17 18 13 12 18 11 20 18 16 9 8 8 9 9 3 4 8 3 2 1 4 4 5 5 5 4 5 3 1 2 3 4 4 4 4 4 5 5 7 9
5 6 15 7 2 6 7 8 13 18 19 6 6 18 18 18 11 14 12 9 12 9 10 5 2 3 6 3 4 3 6 4 6 7 6 8 5 2 4 3 4 5 4 4 5 6 6 8 7
2 13 10 1 4 9 12 17 16 11 6 7 11 17 22 35 15 12 7 9 12 11 8 7 5 3 2 2 3 3 2 7 6 4 12 6 2 4 4 4 5 4 5 5 6 7 7 7 5
8 8 13 11 6 5 12 16 3 4 8 7 7 7 4 1 22 18 9 8 10 10 8 5 6 6 3 4 4 4 4 4 8 9 13 3 1 4 2 3 3 5 5 5 7 8 6 6 5
9 16 13 9 15 9 12 13 9 10 7 5 9 3 5 1 22 14 3 9 9 9 7 7 3 6 5 4 3 2 2 2 2 1 2 4 4 4 4 2 3 3 4 5 6 6 4 5 4
11 8 12 15 14 16 13 13 3 6 8 5 2 9 6 5 20 18 21 8 12 12 10 7 5 3 4 3 3 2 3 3 4 2 3 3 2 2 3 1 3 3 2 4 5 6 6 6 5
5 9 13 15 12 12 2 10 14 9 24 10 6 6 4 2 13 19 2 20 10 13 15 11 8 5 5 5 3 3 2 4 2 2 3 4 5 4 4 3 4 4 3 4 4 5 5 4 5
13 15 14 12 12 15 11 9 8 15 13 19 7 3 4 6 15 13 19 23 30 22 25 6 9 6 4 4 2 2 4 4 4 5 6 5 4 3 4 6 4 5 3 4 4 6 6 4 3
12 20 17 13 7 4 15 9 10 6 3 5 11 8 6 7 12 6 11 14 7 12 16 11 9 7 5 5 5 3 3 3 3 4 4 3 5 5 5 6 4 3 5 3 5 6 5 5 5
8 11 7 3 6 6 10 8 8 9 11 11 9 10 10 11 12 14 10 13 11 15 7 8 9 7 7 6 5 4 0 3 6 4 4 6 4 3 2 5 4 4 4 5 6 5 6 5 5
9 10 8 11 10 11 16 9 9 12 10 7 8 11 11 15 16 12 21 18 26 35 5 3 3 3 4 5 2 6 3 3 4 5 5 3 5 6 4 5 6 6 5 6 4 4 5 5 5
6 8 16 9 2 2 7 15 15 5 6 8 14 16 15 13 8 19 14 15 14 17 14 2 5 4 3 2 6 2 6 6 4 7 5 5 6 7 7 7 6 7 5 5 5 6 6 6 6
6 10 5 6 3 8 12 7 5 11 15 15 15 14 14 13 18 15 12 12 12 6 5 5 4 7 6 2 8 7 5 4 4 5 8 8 7 8 9 8 7 6 7 7 7 5 7 6 5
24 1 6 4 9 9 8 7 18 10 10 10 9 13 12 14 14 14 14 12 15 13 11 8 8 10 13 11 7 6 6 5 8 7 8 7 8 10 10 8 7 8 9 7 6 6 6 6 7
13 5 7 4 6 8 10 4 11 6 7 8 10 12 13 11 11 11 9 13 13 16 16 16 16 12 10 4 5 5 7 7 7 8 7 9 8 8 8 9 9 8 8 9 7 6 5 6 6
Wind_Direction
248 221 224 241 314 260 94 87 63 74 62 59 45 130 80 144 173 173 181 118 117 124 127 137 131 131 128 127 125 119 108 95 69 44 36 33 27 23 23 19 17 14 11 9 6 3 357 354 349
288 285 248 307 229 96 83 75 66 95 129 131 131 167 80 71 88 124 108 118 116 122 145 135 139 140 140 142 140 134 127 94 69 56 34 24 15 12 5 4 4 358 358 356 358 357 352 347 345
255 255 262 60 259 90 88 96 104 79 50 114 83 55 80 99 116 116 122 161 121 131 148 131 145 144 146 147 148 143 130 112 97 45 31 7 5 13 353 353 359 353 351 348 351 350 348 345 339
268 308 353 332 95 69 98 110 123 105 92 49 93 78 74 51 114 121 147 157 143 137 125 136 143 147 151 156 155 156 145 154 166 196 201 340 334 351 344 334 345 358 357 348 342 342 345 349 346
254 114 78 278 104 97 97 94 93 99 76 91 106 99 86 89 104 118 129 133 155 113 126 136 146 154 160 165 167 172 177 185 192 207 203 287 306 299 340 332 346 3 355 344 334 333 334 341 339
279 82 210 280 11 83 72 79 70 103 120 88 86 83 97 118 125 130 149 171 120 127 131 140 151 164 172 175 184 185 195 197 201 197 201 204 202 161 170 170 47 19 356 339 326 323 321 321 310
289 232 159 151 80 67 232 90 210 78 81 75 74 106 143 124 130 139 155 136 181 127 128 145 165 175 183 188 190 195 202 204 201 199 196 203 198 190 178 151 148 182 338 304 299 307 297 297 288
315 318 296 69 108 173 134 77 359 87 95 117 125 151 118 126 137 147 137 153 166 152 147 153 167 179 190 193 201 194 201 213 219 209 204 208 207 222 190 170 188 190 242 269 262 267 276 283 282
275 276 29 279 84 70 97 98 247 63 16 89 147 128 123 137 142 139 145 148 167 160 143 164 180 177 197 180 189 199 190 200 221 227 225 223 217 212 206 201 179 199 234 265 257 256 259 259 275
261 312 183 174 145 120 138 134 133 110 311 349 109 115 133 145 138 140 170 175 164 153 151 165 12 151 123 180 173 194 176 14 324 215 209 224 76 12 308 300 170 233 239 260 260 255 261 266 267
274 339 4 82 35 141 179 115 164 130 127 243 242 136 144 152 147 168 191 153 154 132 124 108 80 15 328 315 173 101 138 182 258 332 13 26 34 301 34 8 79 347 10 347 350 346 334 340 332
278 65 339 48 66 300 62 138 144 123 199 212 221 148 148 163 178 164 102 195 106 116 131 165 158 159 267 327 331 167 144 168 197 208 217 138 336 32 28 27 358 351 354 342 358 341 324 323 329
269 105 301 104 259 288 150 218 149 143 175 219 126 149 161 174 168 155 146 109 133 162 152 171 124 147 166 241 299 326 167 174 197 215 115 75 54 33 350 358 317 0 329 351 354 312 312 328 304
215 356 330 358 284 102 296 49 6 343 302 184 109 161 70 172 160 154 156 123 101 76 85 105 152 127 190 205 322 322 296 341 4 71 68 81 51 101 357 346 359 314 5 7 322 311 310 322 304
273 254 228 205 190 296 45 73 124 275 295 102 212 73 352 260 151 136 135 146 153 136 78 76 49 77 60 323 316 248 312 56 44 83 82 58 140 17 71 304 327 342 9 340 311 328 324 324 343
253 8 291 321 227 197 246 132 194 221 247 236 136 144 127 294 150 134 147 142 101 114 95 78 8 115 137 270 22 322 46 29 52 34 22 315 207 21 90 345 313 4 330 321 312 312 349 345 325
71 327 322 284 96 346 291 199 175 216 245 331 301 131 117 236 157 131 144 170 132 121 128 144 125 123 131 139 296 262 86 57 30 354 285 256 84 328 37 337 336 329 310 313 319 3 338 317 308
252 186 220 147 187 15 330 323 153 184 69 334 294 153 152 208 156 98 185 167 124 122 127 143 157 136 108 349 198 275 121 93 162 281 269 154 14 5 47 350 298 351 325 324 351 323 307 294 314
307 307 29 12 19 331 338 298 291 326 25 341 360 308 305 166 103 166 212 127 110 116 131 146 144 135 175 220 236 227 144 162 199 215 220 85 3 7 335 265 350 340 323 339 330 313 339 327 339
300 343 26 342 338 317 301 303 318 66 49 17 343 305 274 172 116 176 16 141 147 147 143 144 175 160 176 235 231 39 10 319 327 347 93 200 171 222 277 42 337 320 358 339 320 351 319 315 322
41 320 349 321 318 295 299 258 183 91 118 109 29 11 1 15 158 154 202 98 197 155 148 158 160 171 183 260 319 193 242 237 248 93 219 110 184 266 252 288 258 65 341 332 340 316 322 308 310
68 16 317 306 311 302 232 53 81 48 14 343 132 138 97 63 264 92 125 217 180 187 144 140 148 157 200 171 266 194 335 280 321 298 49 17 351 334 312 272 72 42 39 295 296 333 308 294 290
334 324 295 282 284 284 27 318 85 74 76 255 121 102 174 220 97 125 204 61 356 76 332 140 132 161 133 134 227 305 246 353 0 15 16 320 279 16 341 52 46 57 322 306 337 300 294 306 277
354 310 298 287 321 78 263 272 119 136 89 24 22 15 354 304 120 198 112 107 126 156 214 137 148 146 154 186 208 223 307 346 339 301 290 344 356 352 7 44 43 349 298 338 304 314 321 308 283
289 334 314 317 211 150 247 56 352 53 32 22 23 359 341 323 309 126 125 155 184 214 70 133 136 162 180 196 208 204 153 346 276 297 48 349 331 323 355 11 345 330 349 315 307 323 306 290 274
10 357 360 331 359 330 15 52 359 347 52 3 359 351 354 2 25 28 18 44 45 347 70 40 181 181 142 171 195 62 38 14 350 359 5 312 320 339 358 360 340 349 333 305 325 310 284 271 271
57 352 16 318 137 259 246 111 208 353 20 4 6 359 2 8 356 71 64 75 96 196 261 129 39 16 3 50 102 171 61 31 12 3 327 346 332 330 356 330 360 337 312 337 306 277 285 287 280
357 358 68 283 21 327 351 56 344 15 20 24 17 355 10 20 41 22 103 144 188 228 4 68 34 12 15 31 49 70 75 36 357 356 349 336 359 347 340 351 335 326 333 302 283 292 287 290 274
294 253 304 341 19 332 326 46 4 340 3 41 6 42 16 5 4 21 43 35 41 40 40 39 22 1 47 58 63 55 23 6 24 352 358 17 351 353 347 338 342 338 310 297 303 289 288 287 282
6 13 359 2 6 329 305 92 8 35 9 58 22 34 35 30 23 352 35 63 39 32 28 26 19 59 49 54 49 31 35 21 7 32 12 12 359 345 342 354 343 321 307 311 301 305 300 301 310